Hourly Weather Cabrayil

Today, 8 July, Wednesday

Time Temperature Precipitation Wind Pressure Humidity
00:00 +26°C° 0 mm 2 mps 705 mmHg 33%
01:00 +25°C° 0 mm 1 mps 705 mmHg 34%
02:00 +25°C° 0 mm 1 mps 705 mmHg 35%
03:00 +24°C° 0 mm 1 mps 705 mmHg 35%
04:00 +25°C° 0 mm 1 mps 705 mmHg 35%
05:00 +26°C° 0 mm 1 mps 705 mmHg 34%
06:00 +26°C° 0 mm 1 mps 705 mmHg 33%
07:00 +28°C° 0 mm 1 mps 705 mmHg 31%
08:00 +30°C° 0 mm 1 mps 706 mmHg 28%
09:00 +32°C° 0 mm 2 mps 706 mmHg 26%
10:00 +34°C° 0 mm 3 mps 705 mmHg 24%
11:00 +35°C° 0 mm 3 mps 705 mmHg 23%
12:00 +37°C° 0 mm 4 mps 705 mmHg 22%
13:00 +37°C° 0 mm 4 mps 705 mmHg 21%
14:00 +38°C° 0 mm 4 mps 705 mmHg 21%
15:00 +38°C° 0 mm 4 mps 704 mmHg 21%
16:00 +38°C° 0 mm 4 mps 704 mmHg 21%
17:00 +37°C° 0 mm 4 mps 704 mmHg 22%
18:00 +37°C° 0 mm 3 mps 704 mmHg 23%
19:00 +35°C° 0 mm 3 mps 704 mmHg 27%
20:00 +32°C° 0 mm 2 mps 704 mmHg 32%
21:00 +29°C° 0 mm 1 mps 704 mmHg 37%
22:00 +29°C° 0 mm 1 mps 704 mmHg 37%
23:00 +29°C° 0 mm 1 mps 704 mmHg 38%

Tomorrow, 9 July, Thursday

Time Temperature Precipitation Wind Pressure Humidity
00:00 +29°C° 0 mm 2 mps 704 mmHg 38%
01:00 +28°C° 0 mm 1 mps 704 mmHg 41%
02:00 +27°C° 0 mm 1 mps 704 mmHg 45%
03:00 +26°C° 0 mm 1 mps 704 mmHg 48%
04:00 +26°C° 0 mm 1 mps 705 mmHg 47%
05:00 +26°C° 0 mm 1 mps 705 mmHg 47%
06:00 +25°C° 0 mm 0 mps 705 mmHg 47%
07:00 +28°C° 0 mm 1 mps 705 mmHg 44%
08:00 +30°C° 0 mm 2 mps 706 mmHg 41%
09:00 +31°C° 0 mm 3 mps 706 mmHg 37%
10:00 +33°C° 0 mm 4 mps 706 mmHg 34%
11:00 +35°C° 0 mm 4 mps 706 mmHg 31%
12:00 +36°C° 0 mm 4 mps 706 mmHg 28%
13:00 +36°C° 0 mm 5 mps 706 mmHg 27%
14:00 +37°C° 0 mm 5 mps 706 mmHg 26%
15:00 +39°C° 0 mm 5 mps 706 mmHg 25%
16:00 +37°C° 0 mm 5 mps 706 mmHg 26%
17:00 +36°C° 0 mm 5 mps 706 mmHg 28%
18:00 +35°C° 0 mm 5 mps 706 mmHg 29%
19:00 +33°C° 0 mm 4 mps 706 mmHg 34%
20:00 +30°C° 0 mm 3 mps 707 mmHg 40%
21:00 +29°C° 0 mm 2 mps 707 mmHg 45%
22:00 +28°C° 0 mm 2 mps 707 mmHg 48%
23:00 +27°C° 0 mm 2 mps 707 mmHg 50%

Day after tomorrow, 10 July, Friday

Time Temperature Precipitation Wind Pressure Humidity
00:00 +26°C° 0 mm 2 mps 707 mmHg 53%
01:00 +26°C° 0 mm 2 mps 707 mmHg 54%
02:00 +25°C° 0 mm 2 mps 707 mmHg 56%
03:00 +25°C° 0 mm 1 mps 707 mmHg 57%
04:00 +25°C° 0 mm 2 mps 708 mmHg 55%
05:00 +26°C° 0 mm 2 mps 708 mmHg 54%
06:00 +26°C° 0 mm 2 mps 708 mmHg 52%
07:00 +27°C° 0 mm 3 mps 709 mmHg 49%
08:00 +28°C° 0 mm 3 mps 709 mmHg 47%
09:00 +29°C° 0 mm 4 mps 709 mmHg 44%
10:00 +32°C° 0 mm 4 mps 709 mmHg 41%
11:00 +33°C° 0 mm 4 mps 709 mmHg 38%
12:00 +34°C° 0 mm 4 mps 708 mmHg 35%
13:00 +35°C° 0 mm 5 mps 708 mmHg 33%
14:00 +36°C° 0 mm 5 mps 708 mmHg 32%
15:00 +38°C° 0 mm 6 mps 708 mmHg 30%
16:00 +35°C° 0 mm 6 mps 708 mmHg 33%
17:00 +34°C° 0 mm 6 mps 708 mmHg 36%
18:00 +32°C° 0 mm 7 mps 708 mmHg 39%
19:00 +29°C° 0.4 mm 5 mps 708 mmHg 46%
20:00 +28°C° 0.4 mm 3 mps 709 mmHg 53%
21:00 +26°C° 0.4 mm 2 mps 709 mmHg 60%
22:00 +26°C° 0.1 mm 2 mps 709 mmHg 60%
23:00 +26°C° 0.1 mm 1 mps 709 mmHg 60%

11 July, Saturday

Time Temperature Precipitation Wind Pressure Humidity
00:00 +25°C° 0.1 mm 1 mps 709 mmHg 60%
01:00 +25°C° 0.3 mm 1 mps 709 mmHg 62%
02:00 +24°C° 0.3 mm 1 mps 709 mmHg 64%
03:00 +24°C° 0.3 mm 1 mps 709 mmHg 65%
04:00 +24°C° 0.2 mm 1 mps 709 mmHg 64%
05:00 +24°C° 0.2 mm 1 mps 709 mmHg 62%
06:00 +25°C° 0.2 mm 1 mps 709 mmHg 60%
07:00 +26°C° 0.1 mm 1 mps 709 mmHg 54%
08:00 +28°C° 0.1 mm 2 mps 709 mmHg 48%
09:00 +29°C° 0.1 mm 3 mps 709 mmHg 42%
10:00 +31°C° 0 mm 3 mps 709 mmHg 38%
11:00 +33°C° 0 mm 4 mps 709 mmHg 35%
12:00 +34°C° 0 mm 4 mps 709 mmHg 31%
13:00 +35°C° 0 mm 5 mps 708 mmHg 31%
14:00 +35°C° 0 mm 5 mps 708 mmHg 30%
15:00 +36°C° 0 mm 6 mps 708 mmHg 30%
16:00 +35°C° 0 mm 6 mps 708 mmHg 31%
17:00 +34°C° 0 mm 6 mps 708 mmHg 33%
18:00 +33°C° 0 mm 7 mps 708 mmHg 34%
19:00 +32°C° 0 mm 5 mps 708 mmHg 37%
20:00 +30°C° 0 mm 4 mps 708 mmHg 40%
21:00 +28°C° 0 mm 3 mps 708 mmHg 43%
22:00 +28°C° 0 mm 2 mps 708 mmHg 44%
23:00 +27°C° 0 mm 2 mps 708 mmHg 45%

12 July, Sunday

Time Temperature Precipitation Wind Pressure Humidity
00:00 +27°C° 0 mm 1 mps 708 mmHg 46%
01:00 +26°C° 0 mm 1 mps 707 mmHg 46%
02:00 +26°C° 0 mm 1 mps 707 mmHg 47%
03:00 +25°C° 0 mm 1 mps 707 mmHg 47%
04:00 +26°C° 0 mm 1 mps 707 mmHg 47%
05:00 +26°C° 0 mm 1 mps 707 mmHg 46%
06:00 +26°C° 0 mm 1 mps 707 mmHg 45%
07:00 +28°C° 0 mm 1 mps 707 mmHg 41%
08:00 +29°C° 0 mm 2 mps 707 mmHg 38%
09:00 +30°C° 0 mm 3 mps 707 mmHg 35%
10:00 +31°C° 0 mm 3 mps 707 mmHg 33%
11:00 +33°C° 0 mm 4 mps 707 mmHg 31%
12:00 +34°C° 0 mm 4 mps 707 mmHg 29%
13:00 +35°C° 0 mm 4 mps 706 mmHg 29%
14:00 +35°C° 0 mm 4 mps 706 mmHg 28%
15:00 +36°C° 0 mm 4 mps 706 mmHg 28%
16:00 +35°C° 0 mm 4 mps 706 mmHg 30%
17:00 +35°C° 0 mm 5 mps 705 mmHg 31%
18:00 +34°C° 0 mm 5 mps 705 mmHg 33%
19:00 +33°C° 0 mm 4 mps 705 mmHg 39%
20:00 +30°C° 0 mm 3 mps 706 mmHg 44%
21:00 +28°C° 0 mm 1 mps 706 mmHg 50%
22:00 +28°C° 0 mm 2 mps 706 mmHg 53%
23:00 +27°C° 0 mm 2 mps 705 mmHg 56%

13 July, Monday

Time Temperature Precipitation Wind Pressure Humidity
00:00 +26°C° 0 mm 2 mps 705 mmHg 58%
01:00 +26°C° 0 mm 1 mps 705 mmHg 62%
02:00 +25°C° 0 mm 1 mps 704 mmHg 65%
03:00 +24°C° 0 mm 1 mps 704 mmHg 69%
04:00 +25°C° 0 mm 1 mps 704 mmHg 67%
05:00 +25°C° 0 mm 1 mps 705 mmHg 65%
06:00 +23°C° 0 mm 0 mps 705 mmHg 62%
07:00 +27°C° 0 mm 1 mps 705 mmHg 55%
08:00 +29°C° 0 mm 2 mps 705 mmHg 47%
09:00 +30°C° 0 mm 2 mps 705 mmHg 40%
10:00 +33°C° 0 mm 3 mps 705 mmHg 37%
11:00 +34°C° 0 mm 4 mps 705 mmHg 34%
12:00 +35°C° 0 mm 4 mps 704 mmHg 31%
13:00 +36°C° 0 mm 5 mps 704 mmHg 30%
14:00 +36°C° 0 mm 5 mps 704 mmHg 29%
15:00 +37°C° 0 mm 5 mps 703 mmHg 29%
16:00 +36°C° 0 mm 5 mps 703 mmHg 30%
17:00 +36°C° 0 mm 5 mps 703 mmHg 31%
18:00 +35°C° 0 mm 4 mps 703 mmHg 32%
19:00 +34°C° 0.3 mm 4 mps 703 mmHg 37%
20:00 +31°C° 0.3 mm 3 mps 703 mmHg 42%
21:00 +29°C° 0.3 mm 2 mps 704 mmHg 47%
22:00 +28°C° 0.4 mm 2 mps 704 mmHg 52%
23:00 +28°C° 0.4 mm 2 mps 704 mmHg 57%
Show more